SHIYAN 29

导读

试验二十九号(SHIYAN 29)卫星是中国科学院微小卫星创新研究院抓总研制的试验卫星,于北京时间2025年9月5日10时34分在西昌卫星发射中心,由长征三号丙运载火箭搭配远征一号上面级送入预定轨道。该星采用SECM3000高可靠平台,主要用于开展空间环境探测与相关技术试验验证,是长征系列运载火箭第592次飞行任务。

Basic Information
目录编号:
65486
目录名称:
SHIYAN 29
国际标识:
2025-196A
轨道中心:
EARTH
卫星名称:
SHIYAN 29
卫星全名:
SHIYAN 29
卫星状态:
在轨 (已飞行374 天)
发射日期:
2025-09-05 UTC
国别 :
中国 (CN)
星等 :
--
This satellite is enrolled in the Space Conjunction Data Service (SCDS) and the current flight risk assessment level is: No High Risk
Orbit Information
数据来源 国际轨道数据 AOE轨道数据
星历时间 2026-09-14T04:21:35+0800
8小时前
查看轨道信息
2026-09-13T02:00:00+0800
1天前
查看轨道信息
半长轴 42160.159km 42160.215km
偏心率 0.0015373 0.0015363
轨道倾角 28.916° 28.914°
近地点辐角 176.693° 176.710°
升交点赤经 17.420° 17.434°
平近点角 198.621° 162.053°
近地点 35717.209km 35717.307km
远地点 35846.835km 35846.849km
周期 1435.863分钟 1435.866分钟
每日圈数 1.002881 1.002879
Detailed Information
使用方式:
暂无
2D Orbit Map
3D Orbit Map
Orbit Altitude Analysis Chart
Orbit Inclination Analysis Chart
Orbit Comprehensive Analysis Chart
View Comprehensive Chart
Miss Distance Evolution Trend with All Objects Subscribe to Flight Safety Assessment
Collision Probability Evolution Trend with All Objects Subscribe to Flight Safety Assessment